Date String (YYYY-MM-DD hh:mm:ss) UTC,Instrument flags,absolute air pressure of the measurement (hPa),sample flow rate (lpm),inlet stack bypass flow (lpm),air temperature of the measurement (°C),ambient temperature measured by the external sensor (°C),aerosol sample conditioner tube jacket temperature (°C),OPC LED temperature (°C),internal box temperature (°C),relative humidity of the measurement (%),span deviation,mass concentration of particles derived from Lorenz-Mie calculation of OPC scattering (μg/m³),mass concentration of particles derived from Lorenz-Mie calculation of OPC scattering (μg/m³),mass concentration of particles derived from Lorenz-Mie calculation of OPC scattering (μg/m³)
DateTimeUTC,F1_M11,P_M11,Q1_M11,Q2_M11,T1_M11,T2_M11,T3_M11,T4_M11,T5_M11,U1_M11,ZSPAN_M11,X0_M11,X2_M11,X1_M11
2023-07-16 00:00:00,SystemResetWarning,0834.4,4.98,000.00,028.8,025.9,000.0,037.2,030.3,32.5,-001.1,0018.45,0006.51,0005.47
2023-07-16 00:01:00,SystemResetWarning,0834.3,5.00,000.00,028.8,026.4,000.0,037.2,030.4,32.2,-001.4,0017.20,0006.56,0005.51
2023-07-16 00:02:00,SystemResetWarning,0834.3,5.01,000.00,028.9,026.8,000.0,037.2,030.5,33.2,-001.5,0016.47,0006.60,0005.56
2023-07-16 00:03:00,SystemResetWarning,0834.3,5.00,000.00,028.9,027.2,000.0,037.3,030.6,32.6,-001.7,0015.00,0006.70,0005.60
2023-07-16 00:04:00,SystemResetWarning,0834.4,4.99,000.00,029.0,027.5,000.0,037.3,030.7,32.9,-001.7,0014.49,0006.73,0005.65
2023-07-16 00:05:00,SystemResetWarning,0834.4,5.00,000.00,029.0,027.8,000.0,037.3,030.8,31.8,-001.8,0014.42,0006.77,0005.68
2023-07-16 00:06:00,SystemResetWarning,0834.4,4.99,000.00,029.1,027.4,000.0,037.3,030.8,32.6,-001.6,0014.42,0006.78,0005.72
2023-07-16 00:07:00,SystemResetWarning,0834.4,5.00,000.00,029.0,025.8,000.0,037.2,030.5,32.4,-001.3,0014.95,0006.80,0005.75
2023-07-16 00:08:00,SystemResetWarning,0834.3,5.00,000.00,028.9,024.9,000.0,037.1,030.3,32.2,-001.0,0014.84,0006.81,0005.78
2023-07-16 00:09:00,SystemResetWarning,0834.5,5.01,000.00,028.9,025.0,000.0,037.1,030.1,31.6,-000.9,0013.95,0006.79,0005.80
2023-07-16 00:10:00,SystemResetWarning,0834.3,5.01,000.00,028.8,025.4,000.0,037.1,030.1,30.9,-000.7,0014.41,0006.85,0005.81
2023-07-16 00:11:00,SystemResetWarning,0834.3,4.99,000.00,028.8,025.9,000.0,037.2,030.2,30.2,-000.7,0014.19,0006.85,0005.81
2023-07-16 00:12:00,SystemResetWarning,0834.3,5.00,000.00,028.8,026.4,000.0,037.2,030.4,31.5,-000.4,0013.89,0006.87,0005.81
2023-07-16 00:13:00,SystemResetWarning,0834.4,5.00,000.00,028.8,026.8,000.0,037.2,030.5,31.6,-000.2,0014.48,0006.89,0005.80
2023-07-16 00:14:00,SystemResetWarning,0834.4,5.00,000.00,028.9,027.2,000.0,037.2,030.6,30.8,0000.9,0015.08,0006.87,0005.78
2023-07-16 00:15:00,SystemResetWarning,0834.5,5.00,000.00,028.9,027.5,000.0,037.3,030.7,29.3,0001.7,0014.45,0006.83,0005.74
2023-07-16 00:16:00,SystemResetWarning,0834.4,4.99,000.00,029.0,027.8,000.0,037.3,030.8,30.5,0001.9,0014.20,0006.79,0005.72
2023-07-16 00:17:00,SystemResetWarning,0834.3,4.99,000.00,029.0,026.9,000.0,037.2,030.7,30.3,0001.7,0014.19,0006.85,0005.70
2023-07-16 00:18:00,SystemResetWarning,0834.3,5.00,000.00,029.0,025.4,000.0,037.1,030.5,31.4,0001.2,0013.90,0006.87,0005.69
2023-07-16 00:19:00,SystemResetWarning,0834.4,5.00,000.00,028.9,024.9,000.0,037.0,030.3,31.4,0000.2,0014.55,0006.90,0005.68
2023-07-16 00:20:00,SystemResetWarning,0834.4,5.01,000.00,028.8,025.1,000.0,037.1,030.1,30.7,0000.1,0014.91,0006.89,0005.66
2023-07-16 00:21:00,SystemResetWarning,0834.3,5.01,000.00,028.8,025.5,000.0,037.1,030.1,31.0,0000.2,0014.84,0006.83,0005.63
2023-07-16 00:22:00,SystemResetWarning,0834.7,4.99,000.00,028.8,026.0,000.0,037.1,030.3,30.8,0000.5,0015.36,0006.80,0005.61
2023-07-16 00:23:00,SystemResetWarning,0834.4,5.00,000.00,028.8,026.5,000.0,037.2,030.4,30.8,0000.2,0015.53,0006.83,0005.60
2023-07-16 00:24:00,SystemResetWarning,0834.3,5.00,000.00,028.9,026.9,000.0,037.2,030.5,31.1,-000.8,0015.18,0006.81,0005.58
2023-07-16 00:25:00,SystemResetWarning,0834.3,5.01,000.00,028.9,027.3,000.0,037.2,030.6,31.5,-002.2,0014.77,0006.75,0005.54
2023-07-16 00:26:00,SystemResetWarning,0834.4,5.01,000.00,029.0,027.6,000.0,037.3,030.7,31.1,-002.7,0014.73,0006.73,0005.52
2023-07-16 00:27:00,SystemResetWarning,0834.4,4.99,000.00,029.0,027.7,000.0,037.3,030.8,31.5,-002.5,0014.85,0006.72,0005.50
2023-07-16 00:28:00,SystemResetWarning,0834.4,4.98,000.00,029.0,026.3,000.0,037.2,030.6,31.6,-002.3,0014.66,0006.63,0005.48
2023-07-16 00:29:00,SystemResetWarning,0834.5,5.01,000.00,028.9,025.1,000.0,037.1,030.4,31.5,-002.1,0014.27,0006.54,0005.47
2023-07-16 00:30:00,SystemResetWarning,0834.7,5.01,000.00,028.9,024.9,000.0,037.0,030.2,33.0,-001.9,0013.80,0006.46,0005.46
2023-07-16 00:31:00,SystemResetWarning,0834.3,5.01,000.00,028.8,025.2,000.0,037.1,030.1,32.4,-000.3,0014.07,0006.46,0005.46
2023-07-16 00:32:00,SystemResetWarning,0834.5,4.99,000.00,028.8,025.7,000.0,037.1,030.2,32.6,0000.0,0013.97,0006.50,0005.46
2023-07-16 00:33:00,SystemResetWarning,0834.4,5.00,000.00,028.8,026.2,000.0,037.1,030.3,31.4,-000.5,0013.88,0006.55,0005.48
2023-07-16 00:34:00,SystemResetWarning,0834.5,5.01,000.00,028.8,026.6,000.0,037.2,030.4,31.6,-000.8,0014.38,0006.55,0005.49
2023-07-16 00:35:00,SystemResetWarning,0834.4,5.00,000.00,028.9,027.0,000.0,037.2,030.5,32.3,-000.3,0014.22,0006.55,0005.51
2023-07-16 00:36:00,SystemResetWarning,0834.4,5.00,000.00,028.9,027.4,000.0,037.2,030.6,31.7,-000.9,0014.07,0006.58,0005.54
2023-07-16 00:37:00,SystemResetWarning,0834.4,5.00,000.00,029.0,027.6,000.0,037.2,030.7,32.2,-000.9,0014.40,0006.62,0005.56
2023-07-16 00:38:00,SystemResetWarning,0834.4,4.98,000.00,029.0,026.4,000.0,037.1,030.6,32.9,-001.2,0014.20,0006.65,0005.59
2023-07-16 00:39:00,SystemResetWarning,0834.4,5.01,000.00,028.9,025.1,000.0,037.0,030.3,33.0,-001.1,0014.86,0006.69,0005.61
2023-07-16 00:40:00,SystemResetWarning,0834.5,5.01,000.00,028.8,024.8,000.0,037.0,030.2,33.2,-000.9,0015.25,0006.76,0005.63
2023-07-16 00:41:00,SystemResetWarning,0834.5,5.00,000.00,028.7,025.1,000.0,037.0,030.1,33.5,-000.6,0015.32,0006.85,0005.64
2023-07-16 00:42:00,SystemResetWarning,0834.3,5.00,000.00,028.7,025.6,000.0,037.0,030.1,33.5,-000.3,0014.85,0006.89,0005.66
2023-07-16 00:43:00,SystemResetWarning,0834.3,5.01,000.00,028.7,026.1,000.0,037.1,030.2,34.3,0000.0,0014.72,0006.86,0005.66
2023-07-16 00:44:00,SystemResetWarning,0834.4,5.00,000.00,028.8,026.5,000.0,037.1,030.3,34.2,0000.8,0015.38,0006.89,0005.67
2023-07-16 00:45:00,SystemResetWarning,0834.3,4.99,000.00,028.8,027.0,000.0,037.1,030.5,34.4,0000.4,0015.37,0006.86,0005.66
2023-07-16 00:46:00,SystemResetWarning,0834.3,4.99,000.00,028.9,027.3,000.0,037.2,030.6,34.2,0000.4,0016.64,0006.84,0005.66
2023-07-16 00:47:00,SystemResetWarning,0834.3,5.00,000.00,028.9,027.6,000.0,037.2,030.7,34.5,0000.1,0017.45,0006.85,0005.66
2023-07-16 00:48:00,SystemResetWarning,0834.3,5.00,000.00,029.0,027.5,000.0,037.2,030.7,34.7,0000.0,0017.96,0006.84,0005.66
2023-07-16 00:49:00,SystemResetWarning,0834.3,5.00,000.00,028.9,025.9,000.0,037.1,030.4,33.9,0000.0,0019.31,0006.87,0005.66
2023-07-16 00:50:00,SystemResetWarning,0834.5,5.00,000.00,028.8,024.9,000.0,037.0,030.2,34.1,0000.0,0019.57,0006.90,0005.68
2023-07-16 00:51:00,SystemResetWarning,0834.4,5.02,000.00,028.8,024.9,000.0,037.0,030.0,34.4,0000.0,0019.47,0006.93,0005.70
2023-07-16 00:52:00,SystemResetWarning,0834.3,5.00,000.00,028.7,025.3,000.0,037.0,030.0,34.9,0000.0,0019.75,0006.95,0005.72
2023-07-16 00:53:00,SystemResetWarning,0834.4,4.99,000.00,028.8,025.7,000.0,037.1,030.2,35.0,0000.0,0020.16,0007.03,0005.73
2023-07-16 00:54:00,SystemResetWarning,0834.3,5.02,000.00,028.9,026.2,000.0,037.1,030.4,34.7,0000.0,0020.16,0007.08,0005.77
2023-07-16 00:55:00,SystemResetWarning,0834.3,4.98,000.00,029.1,026.6,000.0,037.1,030.5,34.5,0000.0,0019.35,0007.08,0005.82
2023-07-16 00:56:00,SystemResetWarning,0834.4,4.99,000.00,029.2,027.0,000.0,037.2,030.6,34.6,-000.3,0018.92,0007.13,0005.86
2023-07-16 00:57:00,SystemResetWarning,0834.4,5.01,000.00,029.3,027.4,000.0,037.2,030.7,34.1,0000.0,0018.17,0007.21,0005.88
2023-07-16 00:58:00,SystemResetWarning,0834.4,5.00,000.00,029.3,027.7,000.0,037.3,030.8,34.3,-001.9,0018.85,0007.23,0005.91
2023-07-16 00:59:00,SystemResetWarning,0834.4,4.98,000.00,029.4,027.0,000.0,037.3,030.7,34.0,-002.4,0019.12,0007.27,0005.95
